Location: LDNL
(36.4545°S, 141.6685°E)
Time: 02:16:51
(UTC+10:00)

A-11 Canister half - Pass Details

Date: 17 August 2022
Orbit: 1524 x 1684 km, 47.3° (Epoch: 26 September)

Event Time Altitude Azimuth Distance (km) Brightness Sun altitude
Rises 17:33:16 0° 283° (WNW) 4,719 14.1 4.5°
Reaches altitude 10° 17:36:27 10° 278° (W) 3,724 13.1 3.9°
Maximum altitude 17:45:37 56° 201° (SSW) 1,786 9.5 2.2°
Drops below altitude 10° 17:54:46 10° 123° (ESE) 3,716 10.4 0.4°
Sets 17:57:57 0° 118° (ESE) 4,708 10.9 -0.2°
Enters shadow 17:58:08 -1° 118° (ESE) 4,765 10.9 -0.2°
